[Iaude] MPEC C03: 2024 BN4 [a=1.20,e=0.11,i=17.6,H=24.4]

mpec at marsden.cfa.harvard.edu mpec at marsden.cfa.harvard.edu
Wed Jan 31 23:59:27 EST 2024


M.P.E.C. 2024-C03                              Issued 2024 February 1, 04:57 UT

     The Minor Planet Electronic Circulars contain information on unusual
         minor planets, routine data on comets and natural satellites,
         and occasional editorial announcements.  They are published
    on behalf of Division F of the International Astronomical Union by the
          Minor Planet Center, Smithsonian Astrophysical Observatory,
                          Cambridge, MA 02138, U.S.A.
			  
             Prepared using the Tamkin Foundation Computer Network

                              MPC at CFA.HARVARD.EDU
            URL https://www.minorplanetcenter.net/    ISSN 1523-6714

                                    2024 BN4                                    


Observations:
     K24B04N*1C2024 01 30.21725707 48 11.290+21 11 04.81         19.98GVEC003G96
     K24B04N 1C2024 01 30.22291207 48 11.236+21 11 58.45         20.16GVEC003G96
     K24B04N 1C2024 01 30.22856107 48 11.156+21 12 52.24         20.24GVEC003G96
     K24B04N 1C2024 01 30.23421907 48 11.110+21 13 45.70         20.61GVEC003G96
     K24B04N 1C2024 01 30.32784407 48 10.094+21 28 25.82         20.57GVEC003G96
     K24B04N 1C2024 01 30.32837907 48 10.073+21 28 30.40         20.69GVEC003G96
     K24B04N 1C2024 01 30.32890907 48 10.087+21 28 36.30         20.65GVEC003G96
     K24B04N KC2024 01 30.91491907 48 22.78 +22 59 13.8          20.4 GVEC003L01
     K24B04N KC2024 01 30.91689907 48 22.84 +22 59 31.7          20.6 GVEC003L01
     K24B04N KC2024 01 30.91887807 48 22.87 +22 59 50.3          20.4 GVEC003L01
     K24B04N KC2024 01 30.92088207 48 22.80 +23 00 07.8          20.4 GVEC003L01
     K24B04N KC2024 02 01.16651407 48 50.13 +26 07 12.6          20.3 GVEC003H21
     K24B04N KC2024 02 01.16931207 48 50.13 +26 07 37.3          20.5 GVEC003H21
     K24B04N KC2024 02 01.17211007 48 50.13 +26 08 02.0          20.5 GVEC003H21
     K24B04N KC2024 02 01.17490707 48 50.13 +26 08 26.7          20.7 GVEC003H21
     K24B04N KC2024 02 01.17770207 48 50.11 +26 08 51.5          21.0 GVEC003H21

Observer details:
G96 Mt. Lemmon Survey.  Observer D. Rankin.  Measurers T. Beuden, V. F.
    Carvajal, D. Fay, J. B. Fazekas, D. C. Fuls, A. R. Gibbs, A. D. Grauer, H.
    Groeller, J. K. Hogan, R. A. Kowalski, S. M. Larson, G. J. Leonard, D.
    Rankin, R. L. Seaman, F. C. Shelly, K. W. Wierzchos.  1.5-m reflector +
    10K CCD.
H21 Astronomical Research Observatory, Westfield.  Observer R. Holmes.
    Measurers T. Linder, R. Holmes, L. Horn.  0.76-m f/3.0 astrograph + CCD.
L01 Visnjan Observatory, Tican.  Observer K. Korlevic.  1.0-m f/2.9 reflector
    + CCD.

Orbital elements:
2024 BN4                                                 Earth MOID = 0.1078 AU
Epoch 2023 Sept. 13.0 TT = JDT 2460200.5                MPC                     
M 289.95776              (2000.0)            P               Q                  
n   0.74983051     Peri.  317.67120     +0.05112962     -0.96975588             
a   1.1999431      Node   127.96780     +0.97807910     +0.00032122             
e   0.1099458      Incl.   17.62182     +0.20185895     +0.24407668             
P   1.31           H   24.44          G   0.15           U   9                  
Residuals in seconds of arc
240130 G96  0.3+  0.2-    240130 G96  0.5+  0.5+    240201 H21  0.0   0.0
240130 G96  0.3+  0.2-    240130 L01  1.1-  0.3+    240201 H21  0.1+  0.0
240130 G96  0.0   0.1+    240130 L01  0.1-  0.0     240201 H21  0.2+  0.0
240130 G96  0.2+  0.1+    240130 L01  0.4+  0.3+    240201 H21  0.1+  0.1+
240130 G96  0.4+  0.0     240130 L01  0.4-  0.6-
240130 G96  0.2+  0.4-    240201 H21  0.1-  0.0

Ephemeris:
2024 BN4                 a,e,i = 1.20, 0.11, 18                  q = 1.0680
Date    TT    R. A. (2000) Decl.     Delta      r    Elong.  Phase     V
2024 01 02    07 46 23.1 -37 28 29   0.1682  1.0724   117.9    54.1    22.7
...
2024 01 17    07 46 55.3 -14 20 07   0.1186  1.0827   144.7    31.7    21.3
...
2024 01 25    07 47 08.3 +06 46 41   0.1097  1.0905   164.4    14.1    20.6
...
2024 01 31    07 48 24.2 +23 12 37   0.1159  1.0972   164.4    14.0    20.8
2024 02 01    07 48 45.3 +25 42 55   0.1180  1.0984   162.5    15.6    20.9
2024 02 02    07 49 09.2 +28 07 22   0.1204  1.0996   160.5    17.4    21.0
...
2024 02 08    07 52 42.8 +40 17 32   0.1394  1.1073   148.2    28.0    21.6
...
2024 02 16    08 01 18.8 +50 50 18   0.1740  1.1184   135.4    38.3    22.4
...
2024 03 02    08 29 45.7 +59 34 07   0.2515  1.1416   121.2    48.0    23.5

A. U. Tomatic                (C) Copyright 2024 MPC           M.P.E.C. 2024-C03





More information about the Iaude mailing list